Tracking 29059 objects as of 18-Jun-2024
HD Live streaming from Space Station
objects crossing your sky now

THOR ABLESTAR R/B

Track THOR ABLESTAR R/B now!
10-day predictions


NORAD ID: 447
Int'l Code: 1962-060B
Perigee: 1,070.3 km
Apogee: 1,169.1 km
Inclination: 50.1 °
Period: 107.5 minutes
Semi major axis: 7490 km
RCS: 3.8837 m2 (large)
Launch date: October 31, 1962
Source: United States (US)
Launch site: AIR FORCE EASTERN TEST RANGE (AFETR)

Note: This is a ROCKET BODY
Your satellite tracking list
Your tracking list is empty




NASA's NSSDC Master Catalog

Two Line Element Set (TLE):
1 00447U 62060B   24169.71873253 -.00000100  00000-0  51303-4 0  9995
2 00447  50.1312 295.3380 0065987 157.0701 345.2772 13.39115787 14320
Source of the keplerian elements: AFSPC